Regional Weather Roundup
Issued by NWS

Home | Current Version | Previous Version | Graphics & Text | Print | Product List | Glossary On
Versions: 1 2 3 4 5 6 7 8 9 10 11 12 13 14 15 16 17 18 19 20 21 22 23 24 25 26 27 28 29 30 31 32 33 34 35 36 37 38 39 40 41 42 43 44 45 46 47 48 49 50
000
ASUS43 KMKX 231811
RWRWI

WISCONSIN REGIONAL WEATHER ROUNDUP
NATIONAL WEATHER SERVICE MILWAUKEE/SULLIVAN WI
100 PM CDT THU MAR 23 2017

NOTE: "FAIR" INDICATES FEW OR NO CLOUDS BELOW 12,000 FEET WITH NO
SIGNIFICANT WEATHER AND/OR OBSTRUCTIONS TO VISIBILITY.

WIZ001-002-006>008-014>016-023>028-231900-
NORTHWEST WISCONSIN

CITY           SKY/WX    TMP DP  RH WIND       PRES   REMARKS
SUPERIOR ARPT  CLOUDY    38  25  59 SW9       30.04F WCI  31
6HR MIN TEMP:  30; 6HR MAX TEMP:  38;

ASHLAND        NOT AVBL
HAYWARD        CLOUDY    37  21  52 S13       30.05F WCI  29
6HR MIN TEMP:  31; 6HR MAX TEMP:  37;

SIREN          CLOUDY    38  22  54 S9G18     30.05F WCI  31
6HR MIN TEMP:  32; 6HR MAX TEMP:  38;

CUMBERLAND     CLOUDY    34  21  60 S12       30.07S WCI  25
RICE LAKE      CLOUDY    35  24  63 SE9       30.09S WCI  28
6HR MIN TEMP:  31; 6HR MAX TEMP:  36;

CHETEK         CLOUDY    35  24  62 SE12      30.08F WCI  27
6HR MIN TEMP:  31; 6HR MAX TEMP:  35;

LADYSMITH      CLOUDY    36  23  60 S9        30.11F WCI  29
6HR MIN TEMP:  29; 6HR MAX TEMP:  36;

EAU CLAIRE     CLOUDY    39  20  46 S17G23    30.09F WCI  30
6HR MIN TEMP:  33; 6HR MAX TEMP:  39;

MENOMONIE      CLOUDY    39  21  49 SE13      30.09S WCI  31
6HR MIN TEMP:  34; 6HR MAX TEMP:  39;

NEW RICHMOND   CLOUDY    39  22  50 S12G21    30.06S WCI  31
6HR MIN TEMP:  34; 6HR MAX TEMP:  39;

OSCEOLA        CLOUDY    40  24  53 SE15G21   30.07S WCI  32
6HR MIN TEMP:  35; 6HR MAX TEMP:  40;

$$

WIZ003>005-009-010-017-018-231900-
NORTH CENTRAL WISCONSIN

CITY           SKY/WX    TMP DP  RH WIND       PRES   REMARKS
MANITOWISH WTR CLOUDY    33  19  56 S14G20    30.08F WCI  23
6HR MIN TEMP:  25; 6HR MAX TEMP:  33;

ARBOR VITAE    CLOUDY    36  22  57 S16       30.09F WCI  26
6HR MIN TEMP:  27; 6HR MAX TEMP:  36;

WOODRUFF       CLOUDY    36  22  57 S16       30.09F WCI  26
6HR MIN TEMP:  27; 6HR MAX TEMP:  36;

RHINELANDER    CLOUDY    34  21  59 S8        30.12F WCI  27
6HR MIN TEMP:  26; 6HR MAX TEMP:  34; 6HR PCP:  0.03;

EAGLE RIVER    CLOUDY    32  16  52 S15       30.10F WCI  22
6HR MIN TEMP:  25; 6HR MAX TEMP:  32;

LAND O LAKES   CLOUDY    32  19  58 S13       30.12F WCI  22
6HR MIN TEMP:  26; 6HR MAX TEMP:  32;

PHILLIPS       CLOUDY    34  22  61 S14       30.08F WCI  25
6HR MIN TEMP:  26; 6HR MAX TEMP:  34;

TOMAHAWK       CLOUDY    35  22  59 S7        30.13F WCI  29
6HR MIN TEMP:  25; 6HR MAX TEMP:  35;

MEDFORD        CLOUDY    34  22  61 S15       30.10F WCI  24
6HR MIN TEMP:  27; 6HR MAX TEMP:  34;

MERRILL        CLOUDY    36  21  53 S8G18     30.15F WCI  30
6HR MIN TEMP:  26; 6HR MAX TEMP:  36;

$$

WIZ029-030-035-036-043>047-231900-
CENTRAL WISCONSIN

CITY           SKY/WX    TMP DP  RH WIND       PRES   REMARKS
WAUSAU         CLOUDY    37  21  52 S16       30.15F WCI  28
6HR MIN TEMP:  27; 6HR MAX TEMP:  37; 6HR PCP: TRACE;

MOSINEE        CLOUDY    37  23  56 SE14      30.17F WCI  29
MARSHFIELD     CLOUDY    38  21  50 SE15      30.12F WCI  29
6HR MIN TEMP:  28; 6HR MAX TEMP:  38;

STEVENS POINT  CLOUDY    38  20  48 SE10G17   30.18F WCI  31
6HR MIN TEMP:  25; 6HR MAX TEMP:  38;

WAUPACA        CLOUDY    43  23  45 SE10      30.22F
6HR MIN TEMP:  29; 6HR MAX TEMP:  43;

WAUTOMA        CLOUDY    40  21  46 SE14G23   30.20F WCI  32
6HR MIN TEMP:  28; 6HR MAX TEMP:  41; 6HR PCP: TRACE;

WISC RAPIDS    CLOUDY    42  21  43 S17G23    30.17F
6HR MIN TEMP:  28; 6HR MAX TEMP:  42;

CAMP DOUGLAS   CLOUDY    41  21  45 SE12      30.15F
$$

WIZ011>013-019>022-031-037>040-048>050-231900-
NORTHEAST WISCONSIN

CITY           SKY/WX    TMP DP  RH WIND       PRES   REMARKS
ANTIGO         CLOUDY    34  24  68 S14       30.16F WCI  24
6HR MIN TEMP:  24; 6HR MAX TEMP:  34;

SHAWANO        CLOUDY    41  24  51 S10G22    30.24F
6HR MIN TEMP:  29; 6HR MAX TEMP:  41;

OCONTO         CLOUDY    35  26  69 S10G17    30.27F WCI  27
6HR MIN TEMP:  27; 6HR MAX TEMP:  35;

STURGEON BAY   CLOUDY    34  26  72 S17G25    30.28F WCI  23
6HR MIN TEMP:  30; 6HR MAX TEMP:  36;

GREEN BAY      CLOUDY    38  28  67 SE18      30.26F WCI  28
6HR MIN TEMP:  29; 6HR MAX TEMP:  38;

MANITOWOC      CLOUDY    35  26  69 S23G31    30.29F WCI  23
6HR MIN TEMP:  33; 6HR MAX TEMP:  36;

APPLETON       CLOUDY    37  21  52 SE18G25   30.22F WCI  27
CLINTONVILLE   CLOUDY    37  23  56 S15       30.23F WCI  28
OSHKOSH        CLOUDY    42  23  46 S17G24    30.23F
6HR MIN TEMP:  30; 6HR MAX TEMP:  42;

$$

WIZ032>034-041-042-053>061-231900-
SOUTHWEST WISCONSIN

CITY           SKY/WX    TMP DP  RH WIND       PRES   REMARKS
LA CROSSE      CLOUDY    43  22  43 S15G24    30.12F
6HR MIN TEMP:  35; 6HR MAX TEMP:  43;

SPARTA         CLOUDY    40  22  47 SE7       30.15F
6HR MIN TEMP:  33; 6HR MAX TEMP:  40;

VIROQUA        CLOUDY    39  22  52 S16G22    30.13F WCI  30
6HR MIN TEMP:  31; 6HR MAX TEMP:  39;

BOSCOBEL       CLOUDY    44  21  40 VRB7G21   30.17F
6HR MIN TEMP:  33; 6HR MAX TEMP:  44;

PRAIRIE DU CHI CLOUDY    42  22  45 SE13G20   30.15F
6HR MIN TEMP:  34; 6HR MAX TEMP:  42;

PLATTEVILLE    CLOUDY    42  25  51 SE20      30.17F
6HR MIN TEMP:  32; 6HR MAX TEMP:  42;

$$

WIZ056-057-062-063-064-067-068-231900-
SOUTH CENTRAL WISCONSIN

CITY           SKY/WX    TMP DP  RH WIND       PRES   REMARKS
REEDSBURG      CLOUDY    39  22  48 SE10G20   30.18F WCI  33
BARABOO/DELLS  CLOUDY    40  22  48 S14G22    30.17F WCI  32
6HR MIN TEMP:  30; 6HR MAX TEMP:  40;

LONE ROCK      CLOUDY    43  21  41 SE10G21   30.19F
6HR MIN TEMP:  32; 6HR MAX TEMP:  43;

MINERAL POINT  CLOUDY    43  23  45 S21G26    30.17F
MADISON        CLOUDY    43  20  39 S17       30.20F
6HR MIN TEMP:  31; 6HR MAX TEMP:  43;

MIDDLETON      CLOUDY    45  22  40 S18       30.20F
6HR MIN TEMP:  32; 6HR MAX TEMP:  45;

WATERTOWN      CLOUDY    42  20  40 S13G24    30.21F
6HR MIN TEMP:  31; 6HR MAX TEMP:  44;

MONROE         CLOUDY    43  21  42 S18G26    30.19F
JANESVILLE     PTSUNNY   48  19  32 SE18G25   30.22F
$$

WIZ051-052-058>065-066-070>072-231900-
SOUTHEAST WISCONSIN

CITY           SKY/WX    TMP DP  RH WIND       PRES   REMARKS
MILWAUKEE      PTSUNNY   41  22  46 SE15      30.29F
6HR MIN TEMP:  34; 6HR MAX TEMP:  42;

WAUKESHA       MOSUNNY   39  21  48 S13       30.27F WCI  32
MILWAUKEE/TIMM SUNNY     39  19  45 SE12G18   30.29F WCI  32
RACINE         MOSUNNY   39  23  52 SE21G29   30.31F WCI  29
6HR MIN TEMP:  34; 6HR MAX TEMP:  39;

KENOSHA        PTSUNNY   41  24  51 SE17      30.28F
6HR MIN TEMP:  33; 6HR MAX TEMP:  41;

FOND DU LAC    PTSUNNY   42  25  50 S21       30.23F
6HR MIN TEMP:  31; 6HR MAX TEMP:  42;

SHEBOYGAN      CLOUDY    36  26  67 S21G28    30.27F WCI  25
6HR MIN TEMP:  28; 6HR MAX TEMP:  36;

WEST BEND      CLOUDY    41  21  45 S13G18    30.25F
JUNEAU         CLOUDY    40  23  49 SE13      30.23F WCI  33
6HR MIN TEMP:  30; 6HR MAX TEMP:  41;

$$

LSZ147-162-231900-
LAKE SUPERIOR

STATION/POSITION TIME  TEMP    WIND        PRES    WAVE
                       AIR SEA DIR/SP/G            HT/PER
                 (UTC) (F)     (DEG/KT/KT) (MB)    (FT/S)
DEVILS ISLAND    1800   35     180/  5/  8 1018.9F
PORT WING        1740   37     180/  8/ 12 1017.9F
SAXON HARBOR     1730   38     200/  9/ 14 1018.6F
$$

LMZ867-665-643>646-231900-
LAKE MICHIGAN

STATION/POSITION TIME  TEMP    WIND        PRES    WAVE
                       AIR SEA DIR/SP/G            HT/PER
                 (UTC) (F)     (DEG/KT/KT) (MB)    (FT/S)
CHAMBERS ISLAND  1740   35     150/  9/ 17 1025.1F
NORTHPORT PIER   1740   34     160/ 12/ 23 1025.4F
SISTER BAY       1735   36     190/ 23/ 30   N/A
KEWAUNEE LAKESHO 1748   34     180/ 23/ 27 1025.6F
SHEBOYGAN LAKESH 1800   34     160/ 27/ 30 1025.6F
PO



USA.gov is the U.S. government's official web portal to all federal, state and local government web resources and services.